RH
39 46 30 24 23 18 15 12 11 12 11 13 15 16 16 16 14 7 6 8 8 8 7 7 10 13 13 13 14 17 21 30 43 43 58 58 65 77 80 74 59 66 65 72 72
35 45 32 31 26 26 23 18 16 13 12 15 16 18 20 20 20 15 11 9 7 6 6 7 6 7 10 13 12 13 15 22 37 49 52 57 82 89 86 91 82 71 69 64 61
6 42 81 40 30 29 29 29 24 18 16 17 18 23 25 26 28 36 28 26 18 13 7 5 6 6 6 9 12 13 12 16 31 37 37 50 72 84 89 96 93 83 73 69 77
30 6 40 49 27 31 32 32 33 27 25 22 25 22 22 25 31 31 34 39 33 32 20 16 9 5 7 7 8 10 12 12 12 15 29 48 52 79 90 99 95 89 89 80 89
37 24 23 32 42 28 34 36 34 31 34 29 30 28 29 36 39 36 36 34 35 38 38 36 23 10 5 4 5 7 10 10 11 11 14 33 58 80 91 92 86 88 78 84 84
25 11 8 7 41 22 35 48 38 32 30 36 32 34 25 37 41 28 29 29 37 32 36 38 35 25 11 5 4 4 5 5 7 10 11 13 30 58 79 85 87 81 89 84 82
27 32 37 18 12 42 18 20 50 45 30 31 32 33 31 42 35 30 26 24 24 31 31 33 31 29 24 13 6 5 5 5 5 6 8 9 15 36 76 86 83 86 82 79 90
7 41 41 38 33 35 13 19 5 26 46 27 28 29 28 39 28 29 22 21 20 18 27 27 28 26 30 18 9 5 5 5 6 6 7 8 15 28 44 82 91 82 97 96 96
4 8 42 43 42 38 43 28 17 21 9 35 36 24 24 37 25 23 22 25 16 9 26 25 25 30 31 26 16 8 6 6 5 6 7 9 20 38 81 92 79 82 96 95 96
4 4 5 20 39 42 46 37 16 24 10 6 14 27 27 36 31 30 28 22 10 8 20 28 26 33 34 27 20 16 10 6 5 7 10 15 43 72 87 83 72 74 93 93 75
4 5 4 5 20 40 42 40 14 35 29 4 13 16 12 23 25 22 20 14 11 11 20 26 31 44 39 34 28 21 10 7 6 7 11 18 58 84 80 73 69 73 73 71 61
4 4 4 5 6 28 38 20 20 18 27 4 13 8 4 5 10 13 13 12 12 16 18 19 39 47 43 37 27 18 9 7 6 7 14 41 75 83 79 70 67 64 60 60 64
3 4 5 4 6 14 35 37 29 22 28 6 7 9 3 3 5 5 9 15 11 6 5 21 56 50 47 42 24 13 9 8 9 16 34 54 72 75 69 66 57 68 66 65 76
3 3 5 4 6 13 27 33 27 28 31 7 13 9 3 2 2 4 11 11 5 3 6 40 56 55 56 36 21 16 16 17 21 30 37 38 46 49 44 40 52 60 72 75 66
2 3 5 5 6 10 30 34 24 25 17 9 13 13 4 2 3 8 11 4 3 3 4 33 44 63 65 34 36 25 36 47 47 45 50 56 47 36 40 41 55 78 79 73 57
2 3 5 6 6 7 32 34 26 25 13 9 23 16 2 3 8 5 4 2 2 2 7 29 54 65 65 50 39 32 54 47 49 56 56 44 41 39 43 56 80 85 80 59 46
2 2 6 6 6 8 33 33 22 29 21 9 15 11 2 6 6 2 3 2 2 2 5 19 58 65 55 53 43 39 43 54 58 58 51 44 33 42 69 76 86 79 56 41 34
2 2 7 8 6 11 34 32 26 30 32 13 10 4 4 4 2 2 2 2 2 5 19 26 36 38 36 46 52 69 78 77 62 42 29 32 36 44 62 75 61 49 38 17 16
2 3 8 9 9 12 32 32 26 25 28 17 9 4 3 3 3 2 2 2 2 4 7 13 16 26 30 37 48 74 67 44 39 39 38 44 57 69 72 46 37 24 12 14 20
2 3 10 10 11 13 27 26 17 22 20 13 4 3 3 3 2 2 3 2 2 2 3 6 8 9 18 29 60 66 38 36 35 33 36 47 54 55 42 30 17 12 14 18 22
2 5 12 12 13 13 9 23 14 24 12 7 3 4 4 4 4 4 3 3 2 2 2 3 4 6 13 30 30 46 42 34 29 28 47 46 43 37 27 18 13 14 17 21 30
3 9 12 14 13 8 9 23 15 18 10 5 4 5 5 4 5 4 3 4 2 3 4 6 6 10 16 23 28 26 22 35 25 25 36 42 27 30 20 15 14 16 21 29 31
7 16 14 18 9 7 32 21 18 35 7 4 6 6 5 5 5 5 4 4 4 3 4 12 8 7 10 14 14 16 20 15 13 16 45 42 40 29 19 15 15 20 27 30 27
20 29 19 17 10 13 42 19 21 18 4 3 10 8 6 6 6 5 4 4 4 5 6 12 13 8 11 17 8 10 9 12 12 13 43 51 42 24 15 15 20 25 28 27 22
30 28 18 14 9 27 37 17 12 6 4 4 14 12 7 6 6 6 5 5 5 7 6 6 6 5 6 7 6 7 7 8 8 10 37 49 24 15 16 19 24 27 24 21 31
39 32 19 18 27 39 30 16 10 5 5 6 27 20 9 7 7 7 6 6 5 5 6 5 5 6 7 7 7 7 7 7 6 9 20 16 15 16 18 22 24 22 17 29 36
49 29 23 31 34 40 28 14 7 7 16 16 45 21 10 8 13 26 24 20 19 14 10 7 8 8 9 8 8 8 7 7 6 11 10 14 16 18 20 21 19 14 26 35 10
Wind_Speed
35 34 33 32 31 28 26 24 25 24 22 21 18 16 15 12 11 12 9 9 8 10 15 21 24 22 20 18 19 20 21 23 22 26 27 27 24 24 25 24 25 28 28 28 29
33 38 35 35 34 31 28 26 24 23 23 21 20 18 16 13 12 9 9 8 10 10 10 11 17 23 23 21 19 17 15 18 24 26 27 27 27 28 27 26 26 26 28 32 34
36 42 41 40 37 35 32 29 27 25 24 23 21 19 16 15 13 9 8 6 7 8 10 11 10 13 21 24 22 18 13 21 23 25 26 27 28 28 27 22 24 23 26 28 30
42 39 43 40 38 39 36 33 31 29 27 25 23 20 18 15 15 12 10 8 9 7 8 9 11 13 14 17 22 19 18 23 21 24 25 27 29 27 26 26 27 24 30 29 27
44 44 42 40 42 41 40 37 35 33 31 29 26 24 21 18 19 15 14 14 13 13 11 11 10 12 15 15 15 13 21 22 23 23 25 27 28 27 25 26 29 29 29 29 30
44 41 40 39 42 40 44 40 38 36 35 32 31 29 25 23 22 20 19 19 18 18 17 15 12 11 11 15 18 15 17 20 22 22 25 27 29 27 26 25 26 27 27 30 32
50 46 44 39 42 43 41 44 44 39 38 36 34 33 30 32 27 26 25 25 23 25 22 18 14 11 13 12 14 18 18 18 21 22 25 27 29 27 24 27 29 25 27 28 29
51 53 46 47 43 41 42 41 40 44 42 39 39 37 33 36 32 31 28 29 28 31 25 21 16 12 13 14 14 15 17 18 18 21 25 28 28 26 27 27 27 25 24 27 31
54 54 55 52 50 47 41 46 41 36 38 46 43 41 39 39 35 33 33 31 30 30 27 22 16 12 15 16 17 18 20 23 23 23 26 27 25 24 25 24 24 26 27 28 36
58 56 55 52 51 50 46 43 44 38 35 39 43 44 44 42 40 39 38 32 29 26 26 23 19 16 18 19 20 20 21 26 26 25 26 25 23 21 22 23 27 29 32 32 36
60 58 57 53 50 47 46 47 43 43 36 35 39 39 39 40 41 40 37 31 28 25 23 23 21 16 21 25 24 21 21 24 27 26 24 21 19 19 21 25 27 30 33 34 38
63 62 58 56 51 48 47 42 42 40 37 36 39 34 33 32 33 33 33 30 26 24 23 23 18 21 27 22 22 21 20 24 26 26 23 19 18 19 23 26 29 31 34 37 39
68 64 62 58 53 48 48 45 42 39 38 36 38 30 33 31 29 29 32 27 27 27 21 22 20 27 23 21 21 19 20 21 23 23 23 24 25 26 27 30 32 31 34 37 35
72 67 65 60 57 50 48 43 40 40 41 34 34 32 33 31 30 31 31 29 29 26 23 26 26 25 20 17 19 18 18 20 22 23 26 27 30 30 29 28 26 29 32 33 36
75 72 68 63 59 54 48 43 41 38 38 35 35 33 29 31 30 29 29 29 28 27 25 22 25 25 20 20 18 19 19 21 23 25 27 28 29 25 26 24 25 27 30 34 36
77 76 71 66 62 56 50 45 42 39 36 34 35 32 29 29 30 31 29 30 31 32 30 30 27 23 22 21 18 20 22 24 25 27 28 26 27 26 27 25 26 26 32 33 36
78 78 73 68 64 58 51 47 44 46 35 34 30 28 29 30 29 28 29 29 30 29 31 30 27 22 22 21 18 17 20 23 25 28 30 28 27 27 23 23 22 27 29 34 36
80 79 74 70 66 59 52 49 48 44 36 32 29 29 31 32 30 27 26 24 26 24 25 27 28 25 23 19 17 19 22 25 28 28 26 24 23 18 17 20 24 25 31 33 30
80 80 73 71 67 60 55 52 47 41 39 33 30 34 35 32 29 26 24 23 22 20 23 24 26 22 22 20 18 19 23 21 20 23 24 20 15 14 17 19 22 28 29 28 30
81 79 73 74 68 62 57 51 46 41 37 35 34 36 34 29 27 25 25 24 24 22 25 24 25 23 22 20 21 22 19 17 19 22 19 16 16 18 15 20 24 27 27 28 30
79 77 74 73 69 64 59 50 44 41 39 37 38 37 35 30 26 24 22 22 25 24 22 18 19 19 19 20 19 19 18 16 18 18 17 17 14 12 17 21 26 25 25 27 30
80 75 76 74 70 66 60 48 46 42 40 42 38 40 36 30 28 24 22 22 23 21 19 19 17 16 16 17 16 15 15 16 18 17 14 14 13 14 19 23 23 22 24 27 33
76 74 76 75 73 68 57 49 49 47 43 44 38 40 37 31 30 27 24 23 24 21 19 18 17 13 13 13 12 13 14 16 15 16 13 14 13 15 20 20 20 21 25 30 35
72 76 77 77 75 67 55 53 50 48 46 45 40 39 38 34 29 26 25 25 25 21 20 19 16 13 12 12 11 12 12 14 16 17 12 12 14 16 18 18 19 23 27 32 35
73 76 76 78 75 63 57 55 53 49 48 45 41 39 36 33 32 26 24 26 24 22 20 17 13 11 10 9 10 11 12 13 16 16 11 10 12 14 15 17 20 25 29 32 35
76 78 77 76 70 64 60 57 55 51 49 46 41 39 38 34 25 23 21 21 19 19 17 15 13 10 9 8 9 11 12 14 15 13 6 7 10 12 15 18 22 26 29 32 35
78 78 78 75 68 66 60 58 55 54 51 48 43 40 36 31 25 23 23 19 16 17 17 15 13 12 11 10 9 10 12 14 13 9 5 7 9 12 16 20 24 27 28 32 36
Wind_Direction
237 238 233 233 229 229 226 225 225 228 228 226 218 208 210 206 218 229 231 246 238 249 247 247 249 250 252 256 256 259 266 269 268 270 277 284 284 288 294 303 302 305 306 305 312
235 242 238 234 232 229 226 223 220 218 221 214 214 209 205 209 213 212 229 237 251 257 259 256 249 250 250 251 257 261 261 262 261 266 273 282 290 294 299 305 306 305 305 302 305
241 236 236 237 233 230 229 225 224 216 218 216 215 216 212 217 222 215 230 235 251 260 262 266 264 256 248 248 252 257 263 260 262 266 271 276 280 286 295 305 306 304 308 318 326
241 241 228 233 237 234 231 228 227 224 219 220 220 223 225 225 233 231 236 245 250 253 261 269 264 258 255 255 257 261 260 262 266 269 270 270 277 284 292 299 302 307 315 314 318
238 239 234 232 237 235 233 230 229 227 226 224 226 228 231 233 240 242 247 254 254 256 256 269 274 267 258 260 262 255 255 264 265 271 272 270 273 278 285 291 299 308 311 313 313
232 230 232 234 230 238 232 235 232 231 230 229 229 230 232 238 244 248 254 255 256 255 253 258 273 286 284 273 270 266 263 267 267 268 274 276 273 276 284 291 302 308 307 308 308
232 233 234 233 231 237 236 234 236 233 233 233 232 234 234 243 246 252 259 263 261 255 252 254 260 275 280 276 278 273 273 279 276 270 271 275 276 280 282 291 301 302 301 305 297
232 232 231 232 233 237 239 237 237 235 236 234 236 236 239 247 248 253 259 270 267 256 247 250 257 268 271 270 265 267 268 261 258 260 264 264 270 278 286 298 301 293 292 288 299
234 233 234 234 237 240 241 240 238 238 238 235 237 240 238 246 249 254 257 266 266 254 249 253 256 257 257 259 262 262 263 263 259 259 261 267 276 283 285 290 293 294 287 307 311
234 232 232 233 235 237 239 244 236 241 245 237 238 240 240 243 247 252 257 258 254 250 247 254 255 244 246 250 255 260 264 267 267 262 262 267 277 285 284 285 290 296 305 309 309
234 232 232 232 231 232 231 236 236 237 247 243 231 237 239 239 242 247 249 244 246 246 244 248 244 238 240 243 250 258 262 263 263 266 268 270 278 280 283 288 297 300 305 307 314
230 231 229 230 230 230 230 232 235 236 242 238 227 233 237 235 234 235 236 236 238 243 242 240 232 232 240 250 256 258 256 259 263 268 269 266 275 277 287 297 300 303 304 307 316
227 227 227 227 228 228 229 231 232 232 238 239 227 229 235 232 228 230 233 231 231 232 231 229 217 234 246 252 252 251 254 259 261 264 263 265 271 279 287 295 299 302 305 313 317
222 222 224 223 225 224 226 227 229 232 239 234 228 229 233 228 226 226 230 228 228 230 222 220 218 235 242 243 246 257 255 255 259 265 268 274 283 288 291 297 302 306 313 316 318
218 219 220 220 221 220 223 223 225 226 233 228 222 228 232 227 223 222 223 226 230 227 227 223 225 232 240 239 248 250 249 253 261 269 278 285 288 294 304 310 308 313 315 318 320
213 215 216 217 217 218 219 220 221 222 226 228 220 229 226 220 220 218 216 222 227 223 215 214 223 228 233 241 249 246 247 261 272 277 283 287 294 304 311 315 317 314 316 319 320
209 210 212 213 214 214 215 216 218 220 221 225 222 225 217 216 213 216 216 221 224 220 216 216 219 226 231 237 244 256 265 268 274 280 286 288 297 302 305 309 308 313 314 317 321
205 207 208 209 210 211 211 213 217 216 223 227 222 212 208 208 206 209 210 210 213 206 213 217 222 224 233 234 245 254 260 269 277 281 290 295 297 303 306 309 310 311 315 319 324
201 203 203 205 206 207 208 212 213 213 219 223 218 207 203 202 199 197 201 205 206 200 209 209 219 223 230 234 239 250 265 272 273 285 290 295 297 295 304 311 311 315 320 324 327
197 198 199 202 203 203 205 207 208 205 213 217 211 204 199 196 195 194 198 202 201 195 207 214 223 223 228 228 232 248 260 264 279 293 296 301 304 303 305 312 318 322 325 326 327
193 192 196 198 200 201 203 202 201 201 210 209 204 197 195 193 193 199 199 201 196 198 201 206 219 218 221 223 227 244 261 272 283 288 295 304 307 296 311 320 322 323 324 328 328
190 188 194 195 197 199 199 194 196 199 205 202 198 194 194 194 197 200 198 200 195 202 201 190 190 194 205 210 224 241 252 267 281 292 295 296 303 311 319 321 320 325 329 329 330
188 187 193 193 195 196 192 191 196 199 199 196 192 194 194 192 195 195 197 198 199 206 201 183 182 184 193 203 213 230 252 278 289 297 290 291 303 310 318 320 325 329 332 331 331
185 187 191 192 193 191 187 190 193 198 195 194 190 192 192 188 188 189 190 189 191 193 199 182 182 181 186 209 241 259 278 287 292 295 281 281 298 313 319 324 328 332 332 332 334
183 187 190 190 191 184 185 187 192 190 191 190 190 190 191 189 182 178 180 182 184 185 187 185 184 192 206 222 248 269 282 289 293 298 266 286 308 316 320 326 332 331 332 335 336
182 185 188 190 186 182 184 185 188 186 188 188 187 188 189 188 186 181 179 182 187 184 182 186 192 203 221 236 262 281 289 294 302 296 268 294 313 317 324 331 331 332 337 337 335
180 184 186 187 182 181 183 186 185 183 191 186 184 184 187 178 171 177 185 183 186 188 189 193 204 216 229 240 262 279 289 302 300 279 283 312 315 321 328 332 333 338 339 338 338